COSMOS 2251 DEB, 37985

Orbit data source: Space-Track

COSMOS 2251 DEB, 37985 is space debris in LEO originally from a launch on Wed, 16 Jun 1993 UTC launched from the Plesetsk Missile And Space Complex (PKMTR). The debris from Iridium 33, an American commercial communications satellite, has been tracked extensively since its accidental collision with the defunct Russian satellite Cosmos 2251 in 2009. This event, occurring at high speed in low Earth orbit (LEO), generated thousands of pieces of space debris, significantly increasing the risk of further collisions. The Iridium 33 debris cloud has impacted space traffic management and orbital debris mitigation strategies, making it a subject of ongoing study in space situational awareness.

Loading next visibility...
Identifier
37985, 1993-036BQL
Orbit
LEO
Country
Flag of CISCIS
Related business
Manufacturer
Unknown
Mission
Spacecraft
Bus & Motor
Unknown
Mass
Unknown
Launch date (UTC)
1993-06-16 (32 years ago)
Launch vehicle
Unknown
Launch site
Plesetsk Missile And Space Complex (PKMTR)
Object type
Payload
Rocket body
Debris
Shape & HBR
Unknown shape, 0.1 m
Radar Cross Section
Small (<0.1 m²)

Expand to show TLE details & history
Last TLE update: 3 days ago

TLE from 3 days ago
0 COSMOS 2251 DEB
1 37985U 93036BQL 25297.42428028  .00000177  00000-0  70560-4 0  9995
2 37985  74.0271 356.2557 0020529 135.8506 224.4289 14.35460505642099
Epoch: 2025-10-24T10:10Z
TLE epoch observation values (Epoch: 2025-10-24T10:10:57.816Z)
Latitude
-0.00006°
Longitude
170.4454°
Altitude
786.647 km
Speed
7.455 km/s
True Right ascension
23h 45m 01s
True Declination
0° 00' 00"
Sunlit
Object was in full shadow at epoch
Visualization orbit readout
Latitude
Unknown
Longitude
Unknown
Altitude
Unknown
Speed
Unknown
Apparent Right ascension
Unknown
Apparent Declination
Unknown
Sunlit
N/A
Visualization observer readout
Local Sidereal Time
08:23:24
Azimuth
Unknown
Elevation
Unknown
Doppler factor
Unknown
Orbital elements
Apogee altitude
785.839 km
Perigee altitude
756.485 km
Semi-major axis
7,149.299 km
Eccentricity
0.00205
Inclination
74.0271°
RAAN
356.2557°
Arg. of periapsis
135.8506°
True anomaly
224.26452°
Mean anomaly
224.4289°
Eccentric anomaly
224.34668°
Mean motion
3.59044 °/min
Orbital period
100.27 mins
BSTAR
0.00007056
Loading maneuver chart data...
Computing Atmospheric mass density...

Documentation

Showing up to 5 results
|